#timestamp,LO_Frequency,Hit,StdDev 
1514257215.2,286047005.0,N
1514257235.1,286047009.6,Y
1514257236.0,286047009.6,P
1514257255.8,286047006.6,N
1514257275.7,286047004.5,N
1514257295.5,286047004.6,N
1514257315.3,286047007.4,Y
1514257335.2,286047000.6,P
1514257355.0,286047000.2,N
1514257355.9,286047000.2,N
1514257375.8,286047000.6,N
1514257395.6,286046998.5,N
1514257415.4,286046998.3,N
1514257435.3,286047002.4,N
1514257455.1,286047004.4,N
1514257475.8,286047001.9,N
1514257495.7,286046998.5,N
1514257515.5,286047000.3,N
1514257535.4,286047000.1,N
1514257555.2,286047001.5,N
1514257575.0,286047003.9,N
1514257575.9,286047003.9,N
1514257595.8,286047002.2,N
1514257615.6,286047001.5,N
1514257635.5,286047002.0,N
1514257655.3,286047002.1,N
1514257675.1,286047001.7,N
1514257695.9,286047000.3,N
1514257715.7,286046998.8,N
1514257735.5,286046998.3,N
1514257755.4,286047001.0,N
1514257775.2,286047001.0,N
1514257795.1,286046996.6,N
1514257796.0,286046996.6,N
1514257815.8,286046998.2,N
1514257835.6,286046998.1,N
1514257855.5,286046996.7,N
1514257875.3,286046996.8,N
1514257895.2,286046997.6,N
1514257915.9,286046997.6,N
1514257935.7,286047000.8,N
1514257955.6,286047000.7,N
1514257975.4,286047000.4,N
1514257995.2,286047000.1,N
1514258015.1,286046998.5,N
1514258016.0,286046998.5,N
1514258035.8,286046998.9,N
1514258055.7,286046998.3,N
1514258075.5,286047000.3,N
1514258095.3,286047002.7,N
1514258115.2,286047001.0,N
1514258135.0,286047000.3,N
1514258135.9,286047000.3,N
1514258155.8,286047000.7,N
1514258175.6,286047000.7,N
1514258195.4,286047000.5,N
1514258215.3,286046998.5,N
1514258235.1,286046996.8,N
1514258255.8,286046997.2,N
1514258275.7,286046999.6,N
1514258295.5,286046996.5,N
1514258315.4,286046996.9,N
1514258335.2,286046998.7,N
1514258355.0,286047001.1,N
1514258355.9,286047001.1,N
1514258375.8,286047001.1,N
1514258395.6,286046998.7,N
1514258415.4,286046996.9,N
1514258435.3,286046998.9,N
1514258455.1,286046996.8,N
1514258475.9,286046997.8,N
1514258495.7,286046997.5,N
1514258515.5,286047000.8,N
1514258535.4,286046995.4,N
1514258555.2,286046995.2,N
1514258575.1,286046997.9,N
1514258576.0,286046997.9,N
1514258595.8,286046997.0,N
1514258615.6,286046998.5,N
1514258635.5,286046996.5,N
1514258655.3,286046999.1,N
1514258675.1,286046996.5,N
1514258695.9,286047001.1,N
1514258715.7,286047002.3,N
1514258735.6,286047000.9,N
1514258755.4,286046998.3,N
1514258775.2,286047001.0,N
1514258795.1,286046999.8,N
1514258796.0,286046999.8,N
1514258815.8,286047002.4,N
1514258835.7,286047001.8,N
1514258855.5,286047001.8,N
1514258875.3,286047001.6,N
1514258895.2,286047003.1,N
1514258915.0,286047001.7,N
1514258915.9,286047001.7,N
1514258935.8,286047001.5,N
1514258955.6,286047002.0,N
1514258975.4,286047000.4,N
1514258995.3,286047002.8,N
1514259015.1,286047002.6,N
1514259035.8,286047001.4,N
1514259055.7,286047001.6,N
1514259075.5,286047002.7,N
1514259095.4,286047001.8,N
1514259115.2,286047004.1,N
1514259135.0,286047004.3,N
1514259135.9,286047004.3,N
1514259155.8,286047005.7,N
1514259175.6,286047005.3,N
1514259195.5,286047006.4,Y
1514259215.3,286047005.1,P
1514259235.1,286047005.9,P
1514259255.9,286047004.2,N
1514259275.7,286047001.4,N
1514259295.6,286047001.6,N
1514259315.4,286047002.7,N
1514259335.2,286046999.8,N
1514259355.1,286046999.7,N
1514259356.0,286046999.7,N
1514259375.8,286046999.7,N
1514259395.6,286047003.7,N
1514259415.5,286047001.3,N
1514259435.3,286047001.3,N
1514259455.2,286047003.6,N
1514259475.9,286047004.2,N
1514259495.7,286047005.7,N
1514259515.6,286047005.4,N
1514259535.4,286047005.6,N
1514259555.2,286047004.4,N
1514259575.1,286047001.8,N
1514259576.0,286047001.8,N
1514259595.8,286047001.9,N
1514259615.7,286046999.9,N
1514259635.5,286047002.3,N
1514259655.3,286047000.2,N
1514259675.2,286047001.4,N
1514259695.0,286047001.6,N
1514259695.9,286047001.6,N
1514259715.7,286046998.3,N
1514259735.6,286047000.6,N
1514259755.4,286047002.5,N
1514259775.3,286047001.8,N
1514259795.1,286047003.9,N
1514259815.8,286047002.0,N
1514259835.7,286047002.1,N
1514259855.5,286047001.7,N
1514259875.4,286047004.4,N
1514259895.2,286047003.4,N
1514259915.0,286047001.9,N
1514259915.9,286047001.9,N
1514259935.8,286047004.1,N
1514259955.6,286047005.5,Y
1514259975.4,286047002.6,P
1514259995.3,286046998.5,P
1514260015.1,286046997.0,N
1514260035.9,286046996.5,N
1514260055.7,286046999.3,N
1514260075.5,286046996.6,N
1514260095.4,286046997.6,N
1514260115.2,286046999.6,N
1514260135.1,286046999.6,N
1514260136.0,286046999.6,N
1514260155.8,286046999.1,N
1514260175.6,286046998.7,N
1514260195.5,286046996.9,N
1514260215.3,286046996.9,N
1514260235.2,286046997.5,N
1514260255.9,286046999.6,N
1514260275.7,286046997.0,N
1514260295.6,286046998.1,N
1514260315.4,286046999.7,N
1514260335.2,286047000.1,N
1514260355.1,286046998.4,N
1514260356.0,286046998.4,N
1514260375.8,286046999.0,N
1514260395.7,286046999.0,N
1514260415.5,286046998.3,N
1514260435.3,286046996.8,N
1514260455.2,286046998.0,N
1514260475.0,286046995.0,Y
1514260475.9,286046995.0,P
1514260495.8,286047000.8,N
1514260515.6,286046998.7,N
1514260535.4,286046998.3,N
1514260555.3,286046999.4,N
1514260575.1,286046997.9,N
1514260595.9,286046999.2,N
1514260615.7,286046999.1,N
1514260635.5,286046999.4,N
1514260655.4,286046998.1,N
1514260675.2,286046996.5,N
1514260695.0,286046998.8,N
1514260695.9,286046998.8,N
1514260715.8,286047000.2,N
1514260735.6,286047000.7,N
1514260755.5,286046998.6,N
1514260775.3,286046996.9,N
1514260795.1,286046997.9,N
